EW4271 Weather Reports


time (UTC)temp
C
wind
direction
speed
KPH
gust
KPH
rain 1hr
cm
rain 24hr
cm
rain mn
cm
humidity
%
barometer
mb
20260506103129 4 237 1.6 4.8 0.00 0.03 0.00 65 1015.6
20260506102623 5 221 0.0 4.8 0.00 0.03 0.00 65 1015.6
20260506102137 5 215 3.2 4.8 0.00 0.03 0.00 64 1015.5
20260506101651 5 57 0.0 3.2 0.00 0.03 0.00 63 1015.4
20260506101124 5 57 0.0 4.8 0.00 0.03 0.00 63 1015.4
20260506100637 5 59 0.0 12.9 0.00 0.03 0.00 63 1015.3
20260506100130 5 45 6.4 12.9 0.00 0.03 0.00 62 1015.4
20260506095643 5 57 6.4 9.7 0.00 0.03 0.00 62 1015.5
20260506095137 5 135 1.6 12.9 0.00 0.03 0.00 62 1015.4
20260506094635 5 102 4.8 12.9 0.00 0.03 0.00 62 1015.4
20260506094127 5 63 3.2 6.4 0.00 0.03 0.00 63 1015.3
20260506093641 5 144 4.8 6.4 0.00 0.03 0.00 63 1015.1
20260506093155 5 41 1.6 9.7 0.00 0.03 0.00 63 1015.1
20260506092628 5 56 4.8 9.7 0.00 0.03 0.00 63 1015.1
20260506092122 5 96 3.2 9.7 0.00 0.03 0.00 64 1015.0
20260506091637 5 120 3.2 8.0 0.00 0.03 0.00 63 1015.0
20260506091130 5 147 1.6 8.0 0.00 0.03 0.00 62 1015.0
20260506090628 5 72 1.6 8.0 0.00 0.03 0.00 62 1015.0
20260506090123 5 209 1.6 8.0 0.00 0.03 0.00 62 1015.0
20260506085636 5 92 1.6 6.4 0.00 0.03 0.00 62 1015.1
20260506085150 5 177 3.2 12.9 0.00 0.03 0.00 61 1015.2
20260506084643 5 219 4.8 12.9 0.00 0.03 0.00 62 1015.1
20260506084135 5 21 4.8 12.9 0.00 0.03 0.00 62 1015.1
20260506083648 5 282 4.8 11.3 0.00 0.03 0.00 64 1015.2
20260506083140 5 170 1.6 9.7 0.00 0.03 0.00 63 1015.4
20260506082655 5 271 4.8 9.7 0.00 0.03 0.00 63 1015.4
20260506082127 5 153 0.0 8.0 0.00 0.03 0.00 63 1015.4
20260506081641 5 162 4.8 11.3 0.00 0.03 0.00 62 1015.4
20260506081135 6 128 3.2 11.3 0.00 0.03 0.00 62 1015.4
20260506080653 5 250 3.2 6.4 0.00 0.03 0.00 62 1015.3
20260506080125 5 5 3.2 11.3 0.00 0.03 0.00 62 1015.2
20260506073129 6 222 4.8 14.5 0.00 0.03 0.00 62 1015.3
20260506072647 6 103 0.0 8.0 0.00 0.03 0.00 63 1015.4
20260506072140 6 157 3.2 8.0 0.00 0.03 0.00 64 1015.4
20260506071633 6 184 1.6 6.4 0.00 0.03 0.00 63 1015.5
20260506071148 6 188 0.0 6.4 0.00 0.03 0.00 64 1015.6
20260506070641 6 286 1.6 8.0 0.00 0.03 0.00 64 1015.8
20260506070136 6 350 1.6 12.9 0.00 0.03 0.00 64 1015.7
20260506062129 6 103 0.0 4.8 0.00 0.03 0.00 62 1015.5
20260506061623 6 279 1.6 9.7 0.00 0.03 0.00 62 1015.4
20260506061137 6 317 3.2 9.7 0.00 0.03 0.00 63 1015.4
20260506060630 6 311 4.8 11.3 0.00 0.03 0.00 62 1015.4
20260506060128 6 307 1.6 17.7 0.00 0.03 0.00 63 1015.4
20260506051146 7 300 4.8 20.9 0.00 0.03 0.03 64 1014.8
20260506050658 7 34 3.2 16.1 0.00 0.03 0.03 66 1015.1
20260506050131 7 49 3.2 11.3 0.00 0.03 0.03 66 1015.6
20260506044631 7 298 3.2 9.7 0.00 0.03 0.03 67 1015.2
20260506044123 7 221 3.2 9.7 0.00 0.03 0.03 68 1015.5
20260506043640 7 340 3.2 9.7 0.00 0.03 0.03 68 1015.5
20260506043153 7 211 0.0 6.4 0.00 0.03 0.03 68 1015.7
20260506042636 7 316 1.6 6.4 0.00 0.03 0.03 69 1015.5
20260506042127 7 197 1.6 8.0 0.00 0.03 0.03 69 1015.4
20260506041638 7 255 3.2 9.7 0.00 0.03 0.03 69 1015.2
20260506041130 7 273 1.6 6.4 0.00 0.03 0.03 70 1015.2
20260506040624 6 243 1.6 8.0 0.00 0.03 0.03 70 1014.9
20260506040138 6 221 3.2 8.0 0.00 0.03 0.03 72 1014.7
20260506035651 6 90 3.2 9.7 0.00 0.03 0.03 74 1014.7
20260506035125 6 337 3.2 17.7 0.00 0.03 0.03 75 1014.4
20260506034623 6 5 4.8 17.7 0.00 0.03 0.03 76 1014.3
20260506034136 6 26 3.2 8.0 0.03 0.03 0.03 78 1014.5
20260506033630 6 51 1.6 8.0 0.03 0.03 0.03 82 1014.5
20260506033144 6 154 0.0 0.0 0.03 0.03 0.03 80 1014.9
20260506032636 6 154 0.0 0.0 0.03 0.03 0.03 79 1015.2
20260506032130 6 275 0.0 3.2 0.03 0.03 0.03 79 1015.5
20260506031645 6 177 0.0 6.4 0.03 0.03 0.03 79 1015.4
20260506031136 6 254 1.6 8.0 0.03 0.03 0.03 78 1015.5
20260506030630 6 46 1.6 9.7 0.03 0.03 0.03 78 1015.2
20260506030127 6 252 1.6 6.4 0.03 0.03 0.03 78 1015.0
20260506025622 6 321 3.2 19.3 0.03 0.03 0.03 77 1014.7
20260506025156 6 273 3.2 24.1 0.03 0.03 0.03 76 1014.6
20260506024648 6 261 4.8 24.1 0.03 0.03 0.03 73 1014.2
20260506024141 7 88 4.8 19.3 0.00 0.00 0.00 70 1014.0
20260506023635 6 105 1.6 9.7 0.00 0.00 0.00 71 1014.2
20260506023129 6 288 3.2 9.7 0.00 0.00 0.00 71 1014.3
20260506022644 7 200 1.6 22.5 0.00 0.00 0.00 70 1014.5
20260506022156 7 312 6.4 22.5 0.00 0.00 0.00 69 1014.5
20260506021629 7 25 6.4 17.7 0.00 0.00 0.00 70 1014.0
20260506021144 7 355 6.4 14.5 0.00 0.00 0.00 72 1013.5
20260506020636 6 284 1.6 12.9 0.00 0.00 0.00 72 1013.1
20260506020129 6 23 3.2 12.9 0.00 0.00 0.00 73 1013.1
20260506015642 6 320 3.2 6.4 0.00 0.00 0.00 78 1013.1
20260506015155 6 120 3.2 4.8 0.00 0.00 0.00 77 1013.3
20260506014629 6 205 1.6 4.8 0.00 0.00 0.00 77 1013.7
20260506014141 6 182 1.6 12.9 0.00 0.00 0.00 76 1013.8
20260506013656 6 281 0.0 12.9 0.00 0.00 0.00 76 1014.1
20260506013129 7 230 4.8 11.3 0.00 0.00 0.00 73 1014.2
20260506012623 7 313 3.2 16.1 0.00 0.00 0.00 69 1014.0
20260506012140 8 315 4.8 16.1 0.00 0.00 0.00 64 1014.0
20260506011654 10 284 4.8 14.5 0.00 0.00 0.00 59 1014.0
20260506011127 10 360 4.8 14.5 0.00 0.00 0.00 53 1013.4
20260506010701 10 251 3.2 11.3 0.00 0.00 0.00 55 1013.3
20260506010133 10 209 1.6 6.4 0.00 0.00 0.00 55 1013.0
20260506005627 10 46 3.2 6.4 0.00 0.00 0.00 54 1012.6
20260506005140 10 246 3.2 8.0 0.00 0.00 0.00 54 1012.8
20260506004634 10 232 4.8 12.9 0.00 0.00 0.00 53 1012.9
20260506004148 10 255 6.4 12.9 0.00 0.00 0.00 51 1012.6
20260506003626 11 315 1.6 11.3 0.00 0.00 0.00 50 1012.5
20260506003140 11 292 3.2 9.7 0.00 0.00 0.00 50 1012.4
20260506002633 11 39 4.8 9.7 0.00 0.00 0.00 49 1012.6
20260506002148 12 283 4.8 11.3 0.00 0.00 0.00 47 1012.6
20260506001640 12 313 4.8 16.1 0.00 0.00 0.00 43 1012.7
20260506001135 12 11 4.8 16.1 0.00 0.00 0.00 42 1012.5
20260506000628 13 70 4.8 9.7 0.00 0.00 0.00 42 1012.4
20260506000141 13 34 4.8 8.0 0.00 0.00 0.00 42 1012.2
20260505235631 13 318 3.2 17.7 0.00 0.00 0.00 42 1012.3
20260505235125 13 300 6.4 17.7 0.00 0.00 0.00 42 1012.2
20260505234639 13 220 3.2 14.5 0.00 0.00 0.00 43 1011.9
20260505234153 13 264 4.8 17.7 0.00 0.00 0.00 44 1011.8
20260505233625 12 355 6.4 17.7 0.00 0.00 0.00 45 1011.7
20260505233140 12 96 1.6 8.0 0.00 0.00 0.00 48 1011.8
20260505232634 12 305 3.2 8.0 0.00 0.00 0.00 47 1011.7
20260505232128 12 316 1.6 9.7 0.00 0.00 0.00 47 1011.7
20260505231640 12 86 3.2 9.7 0.00 0.00 0.00 46 1012.0
20260505231134 12 310 1.6 8.0 0.00 0.00 0.00 48 1012.3
20260505230632 12 10 4.8 20.9 0.00 0.00 0.00 49 1012.5
20260505230125 13 326 3.2 6.4 0.00 0.00 0.00 43 1012.4
20260505225640 13 101 1.6 6.4 0.00 0.00 0.00 43 1012.1
20260505225133 13 228 1.6 14.5 0.00 0.00 0.00 41 1012.0
20260505224627 13 306 3.2 14.5 0.00 0.00 0.00 41 1011.8
20260505224141 13 360 3.2 9.7 0.00 0.00 0.00 40 1011.7
20260505223635 13 347 4.8 9.7 0.00 0.00 0.00 42 1011.9
20260505223133 14 76 6.4 14.5 0.00 0.00 0.00 42 1011.7
20260505222626 14 112 8.0 16.1 0.00 0.00 0.00 42 1011.5
20260505222141 14 267 3.2 8.0 0.00 0.00 0.00 42 1011.7
20260505221634 14 148 1.6 9.7 0.00 0.00 0.00 44 1011.8
20260505221127 13 109 1.6 6.4 0.00 0.00 0.00 44 1011.9
20260505220622 13 150 1.6 8.0 0.00 0.00 0.00 43 1012.1
20260505220135 13 292 1.6 4.8 0.00 0.00 0.00 43 1012.0
20260505215629 13 129 1.6 6.4 0.00 0.00 0.00 42 1012.0
20260505215143 13 147 1.6 9.7 0.00 0.00 0.00 42 1012.1
20260505214640 13 139 3.2 9.7 0.00 0.00 0.00 41 1012.2
20260505214154 13 134 1.6 9.7 0.00 0.00 0.00 42 1012.3
20260505213627 13 58 1.6 8.0 0.00 0.00 0.00 43 1012.3
20260505213141 13 58 1.6 8.0 0.00 0.00 0.00 41 1012.4
20260505212634 13 344 0.0 4.8 0.00 0.00 0.00 42 1012.6
20260505212128 13 346 1.6 4.8 0.00 0.00 0.00 42 1012.6
20260505211623 13 49 3.2 9.7 0.00 0.00 0.00 41 1012.7
20260505211136 14 55 3.2 9.7 0.00 0.00 0.00 40 1012.9
20260505210634 14 242 3.2 8.0 0.00 0.00 0.00 39 1012.9
20260505210128 14 73 3.2 8.0 0.00 0.00 0.00 40 1012.8
20260505205622 14 205 3.2 12.9 0.00 0.00 0.00 40 1013.0
20260505205157 14 207 3.2 12.9 0.00 0.00 0.00 41 1013.0
20260505204630 14 103 3.2 8.0 0.00 0.00 0.00 42 1013.1
20260505204123 13 259 3.2 8.0 0.00 0.00 0.00 43 1013.2
20260505203637 13 144 1.6 6.4 0.00 0.00 0.00 47 1013.3
20260505203130 12 275 3.2 8.0 0.00 0.00 0.00 47 1013.4
20260505202628 12 297 1.6 8.0 0.00 0.00 0.00 50 1013.7
20260505202121 12 63 3.2 8.0 0.00 0.00 0.00 51 1013.9
20260505201635 12 340 3.2 11.3 0.00 0.00 0.00 47 1013.8
20260505201129 12 212 1.6 11.3 0.00 0.00 0.00 47 1013.8
20260505200623 12 259 1.6 8.0 0.00 0.00 0.00 47 1013.7
20260505200158 12 288 3.2 8.0 0.00 0.00 0.00 49 1013.6
20260505195630 12 16 3.2 8.0 0.00 0.00 0.00 49 1013.6
20260505195125 12 36 4.8 8.0 0.00 0.00 0.00 48 1013.8
20260505194622 12 11 3.2 11.3 0.00 0.00 0.00 50 1013.8
20260505194136 12 324 3.2 12.9 0.00 0.00 0.00 50 1013.9
20260505193631 12 12 3.2 8.0 0.00 0.00 0.00 53 1013.8
20260505193122 12 315 4.8 8.0 0.00 0.00 0.00 49 1013.8
20260505192637 12 42 1.6 6.4 0.00 0.00 0.00 50 1013.8
20260505192130 12 275 1.6 8.0 0.00 0.00 0.00 50 1013.9
20260505191644 12 296 3.2 16.1 0.00 0.00 0.00 52 1013.9
20260505191134 12 236 4.8 16.1 0.00 0.00 0.00 51 1013.9
20260505190629 12 294 3.2 6.4 0.00 0.00 0.00 57 1014.0
20260505190126 11 165 1.6 8.0 0.00 0.00 0.00 60 1014.0
20260505185640 11 14 1.6 9.7 0.00 0.00 0.00 66 1014.0
20260505185133 11 289 6.4 9.7 0.00 0.00 0.00 59 1014.2
20260505184627 10 333 4.8 9.7 0.00 0.00 0.00 60 1014.2
20260505184141 10 32 1.6 6.4 0.00 0.00 0.00 62 1014.1
20260505183635 10 302 3.2 6.4 0.00 0.00 0.00 60 1014.2
20260505183129 11 296 1.6 6.4 0.00 0.00 0.00 59 1014.1
20260505182643 11 315 1.6 4.8 0.00 0.00 0.00 56 1014.1
20260505182140 11 360 1.6 4.8 0.00 0.00 0.00 51 1014.0
20260505181633 11 273 1.6 6.4 0.00 0.00 0.00 51 1013.9
20260505181128 12 11 3.2 6.4 0.00 0.00 0.00 50 1013.7
20260505180621 12 81 1.6 6.4 0.00 0.00 0.00 49 1013.7
20260505180136 12 137 0.0 6.4 0.00 0.00 0.00 43 1013.7
20260505175649 12 277 1.6 6.4 0.00 0.00 0.00 43 1013.6
20260505175122 12 46 4.8 6.4 0.00 0.00 0.00 43 1013.5
20260505174636 12 288 3.2 6.4 0.00 0.00 0.00 43 1013.5
20260505174133 12 312 1.6 6.4 0.00 0.00 0.00 43 1013.7
20260505173627 12 139 3.2 6.4 0.00 0.00 0.00 43 1013.8
20260505173141 12 148 3.2 8.0 0.00 0.00 0.00 42 1014.0
20260505172635 12 134 3.2 11.3 0.00 0.00 0.00 42 1014.0
20260505172128 12 130 1.6 11.3 0.00 0.00 0.00 42 1014.0
20260505171622 12 98 3.2 8.0 0.00 0.00 0.00 42 1014.0
20260505171156 12 34 3.2 11.3 0.00 0.00 0.00 42 1014.0
20260505170627 12 167 3.2 12.9 0.00 0.00 0.00 41 1014.1
20260505170141 12 178 3.2 8.0 0.00 0.00 0.00 42 1014.0
20260505165639 12 256 1.6 9.7 0.00 0.00 0.00 42 1014.1
20260505165132 12 151 3.2 12.9 0.00 0.00 0.00 44 1014.2
20260505164646 11 121 4.8 9.7 0.00 0.00 0.00 45 1014.3
20260505164139 11 143 3.2 8.0 0.00 0.00 0.00 44 1014.4
20260505163633 11 176 1.6 4.8 0.00 0.00 0.00 44 1014.5
20260505163147 11 202 0.0 4.8 0.00 0.00 0.00 44 1014.6
20260505162640 11 36 0.0 6.4 0.00 0.00 0.00 45 1014.6
20260505162134 11 321 1.6 8.0 0.00 0.00 0.00 46 1014.5
20260505161627 11 355 3.2 8.0 0.00 0.00 0.00 45 1014.5
20260505161125 11 309 1.6 6.4 0.00 0.00 0.00 46 1014.5
20260505160639 11 189 1.6 6.4 0.00 0.00 0.00 46 1014.7
20260505160153 11 327 1.6 6.4 0.00 0.00 0.00 46 1014.7
20260505153135 11 91 1.6 8.0 0.00 0.00 0.00 45 1015.0
20260505152632 11 177 3.2 8.0 0.00 0.00 0.00 44 1014.8
20260505152126 11 197 1.6 4.8 0.00 0.00 0.00 44 1015.0
20260505151638 11 198 1.6 4.8 0.00 0.00 0.00 45 1015.1
20260505151131 10 126 1.6 4.8 0.00 0.00 0.00 45 1015.2
20260505150624 10 299 1.6 11.3 0.00 0.00 0.00 45 1015.1
20260505150137 10 239 1.6 11.3 0.00 0.00 0.00 45 1015.2
20260505140644 10 19 1.6 6.4 0.00 0.00 0.00 52 1015.1
20260505140137 10 5 3.2 6.4 0.00 0.00 0.00 51 1015.3
20260505130123 9 194 1.6 3.2 0.00 0.00 0.00 52 1015.4
20260505124627 9 252 3.2 8.0 0.00 0.00 0.00 52 1015.1
20260505124141 9 349 3.2 6.4 0.00 0.00 0.00 52 1015.2
20260505123635 9 54 0.0 0.0 0.00 0.00 0.00 52 1015.2
20260505123128 9 54 0.0 3.2 0.00 0.00 0.00 51 1015.2
20260505122642 9 54 0.0 4.8 0.00 0.00 0.00 50 1015.1
20260505122136 9 54 1.6 6.4 0.00 0.00 0.00 50 1015.1
20260505121629 9 42 1.6 6.4 0.00 0.00 0.00 50 1015.0
20260505121128 9 88 3.2 3.2 0.00 0.00 0.00 49 1014.9
20260505120639 9 240 0.0 0.0 0.00 0.00 0.00 49 1014.9
20260505120132 9 157 0.0 0.0 0.00 0.00 0.00 48 1014.7
20260505115646 10 157 0.0 0.0 0.00 0.00 0.00 47 1014.7
20260505115139 10 157 0.0 3.2 0.00 0.00 0.00 47 1014.6
20260505114632 10 157 0.0 3.2 0.00 0.00 0.00 46 1014.7
20260505114126 10 166 0.0 0.0 0.00 0.00 0.00 46 1014.8
20260505113640 10 166 0.0 3.2 0.00 0.00 0.00 45 1014.8
20260505113154 10 264 0.0 6.4 0.00 0.00 0.00 45 1014.7
20260505112632 10 279 1.6 9.7 0.00 0.00 0.00 45 1014.8
20260505112126 10 49 3.2 4.8 0.00 0.00 0.00 45 1014.8
20260505111639 10 153 0.0 4.8 0.00 0.00 0.00 44 1014.8
20260505111132 10 153 1.6 4.8 0.00 0.00 0.00 43 1014.9
20260505110627 10 198 0.0 4.8 0.00 0.00 0.00 42 1014.9
20260505110140 10 198 1.6 4.8 0.00 0.00 0.00 42 1015.0